DateTimeUTC,F1_A11,F1_S11,BsB_S11,BsG_S11,BsR_S11,BbsB_S11,BbsG_S11,BbsR_S11,BaB_A11,BaG_A11,BaR_A11,Tu_S11,T_S11,Uu_S11,U_S11,P_S11,T1_A11
2021-02-07T20:00:00Z,00000200,21000000,,,,,,,-000.22,-000.11,0000.06,15.6,23.2,,00.0,0656.6,30.9
2021-02-07T20:01:00Z,00000200,21000000,,,,,,,-000.03,0000.28,-000.17,15.6,23.2,,00.0,0656.5,30.9
2021-02-07T20:02:00Z,00000200,21000000,,,,,,,0000.23,0000.14,0000.14,15.6,23.2,,00.0,0656.5,30.9
2021-02-07T20:03:00Z,00000200,61000000,,,,,,,0000.47,0000.51,0000.29,15.7,23.2,,00.0,0656.5,30.9
2021-02-07T20:04:00Z,00000200,41000000,0001.65,0000.65,0000.29,0000.27,0000.38,0000.20,0000.49,0000.50,0000.26,16.1,23.1,,00.0,0657.3,31.0
2021-02-07T20:05:00Z,00000200,01000000,0001.16,0000.99,0000.37,-000.31,0000.25,0000.14,0000.15,0000.19,0000.42,16.3,23.1,,00.0,0657.4,31.0
2021-02-07T20:06:00Z,00000200,01000000,0000.67,0000.68,0000.29,-000.48,0000.02,0000.27,0000.27,0000.10,0000.21,16.3,23.1,,00.0,0657.4,31.0
2021-02-07T20:07:00Z,00000200,01000000,0001.22,0000.65,0000.25,-000.01,0000.37,0000.14,0000.06,0000.33,-000.29,16.4,23.1,,00.0,0657.4,31.0
2021-02-07T20:08:00Z,00000200,01000000,0001.25,0000.90,0000.31,0000.04,0000.11,0000.21,0000.33,0000.04,0000.22,16.3,23.1,,00.0,0657.4,31.0
2021-02-07T20:09:00Z,00000200,01000000,0001.16,0000.73,0000.59,-000.06,0000.20,-000.11,0000.13,-000.01,0000.13,16.3,23.1,,00.0,0657.4,31.0
2021-02-07T20:10:00Z,00000200,01000000,0001.81,0000.67,0000.45,0000.16,-000.10,0000.15,0000.04,0000.31,0000.23,16.3,23.1,,00.0,0657.5,31.0
2021-02-07T20:11:00Z,00000200,01000000,0001.23,0000.71,0000.51,0000.10,0000.10,0000.17,0000.03,0000.33,-000.25,16.2,23.1,,00.0,0657.5,31.0
2021-02-07T20:12:00Z,00000200,01000000,0000.97,0001.07,0000.70,-000.00,0000.19,0000.03,0000.45,0000.07,0000.13,16.2,23.1,,00.0,0657.5,30.9
2021-02-07T20:13:00Z,00000200,01000000,0000.92,0000.97,0000.31,-000.30,0000.24,0000.15,0000.25,0000.18,0000.49,16.1,23.0,,00.0,0657.4,30.9
2021-02-07T20:14:00Z,00000200,01000000,0000.79,0000.81,0000.61,0000.28,0000.26,0000.46,0000.40,0000.28,0000.05,16.1,23.0,,00.0,0657.5,30.9
2021-02-07T20:15:00Z,00000200,01000000,0001.67,0000.72,0000.32,-000.14,0000.35,0000.07,0000.28,0000.41,0000.33,16.1,23.0,,00.0,0657.5,30.9
2021-02-07T20:16:00Z,00000200,01000000,0001.03,0000.81,0000.54,0000.80,0000.29,0000.43,0000.55,0000.52,0000.50,16.1,23.0,,00.0,0657.5,30.9
2021-02-07T20:17:00Z,00000200,01000000,0001.27,0000.87,0000.41,-000.18,-000.03,0000.41,0000.19,0000.14,-000.24,16.2,23.0,,00.0,0657.6,30.9
2021-02-07T20:18:00Z,00000200,01000000,0001.36,0000.95,0000.23,-000.04,0000.35,0000.16,0000.41,0000.49,0000.37,16.3,23.1,,00.0,0657.6,31.0
2021-02-07T20:19:00Z,00000200,01000000,0001.09,0001.00,0000.62,0000.14,0000.17,0000.28,0000.32,0000.28,0000.62,16.3,23.1,,00.0,0657.7,31.0
2021-02-07T20:20:00Z,00000200,01000000,0001.51,0000.78,0000.50,0000.26,-000.15,0000.23,0000.47,0000.06,0000.06,16.4,23.1,,00.0,0657.7,31.0
2021-02-07T20:21:00Z,00000200,01000000,0002.21,0000.88,0000.50,0000.23,0000.23,0000.13,0000.27,0000.13,-000.05,16.5,23.2,,00.0,0657.7,31.0
2021-02-07T20:22:00Z,00000200,01000000,0000.96,0000.83,0000.12,-000.27,0000.09,0000.20,-000.13,-000.11,-000.15,16.5,23.2,,00.0,0657.7,31.0
2021-02-07T20:23:00Z,00000200,01000000,0001.26,0000.73,0000.40,0000.44,-000.02,0000.25,0000.25,0000.11,0000.28,16.4,23.2,,00.0,0657.7,31.0
2021-02-07T20:24:00Z,00000200,01000000,0001.58,0000.80,0000.87,0000.15,0000.38,0000.18,0000.05,0000.23,0000.22,16.4,23.2,,00.0,0657.7,31.0
2021-02-07T20:25:00Z,00000200,01000000,0001.74,0000.68,0000.23,0000.18,0000.16,0000.21,0000.17,0000.26,-000.19,16.3,23.1,,00.0,0657.7,31.0
2021-02-07T20:26:00Z,00000200,01000000,0002.11,0000.58,0000.32,-000.10,0000.45,0000.23,0000.28,0000.15,0000.10,16.3,23.1,,00.0,0657.6,31.0
2021-02-07T20:27:00Z,00000200,01000000,0001.11,0000.87,0000.57,0000.01,0000.14,0000.19,0000.51,0000.32,0000.35,16.2,23.1,,00.0,0657.6,31.0
2021-02-07T20:28:00Z,00000200,01000000,0001.29,0000.89,0000.39,-000.05,0000.10,0000.24,0000.19,0000.67,0000.39,16.2,23.1,,00.0,0657.5,31.0
2021-02-07T20:29:00Z,00000200,01000000,0001.04,0000.66,0000.38,-000.21,0000.10,0000.18,0000.79,0000.34,0000.41,16.2,23.0,,00.0,0657.5,31.0
2021-02-07T20:30:00Z,00000200,01000000,0001.15,0000.87,0000.60,0000.40,-000.06,0000.26,0000.83,0000.61,0000.37,16.1,23.0,,00.0,0657.4,30.9
2021-02-07T20:31:00Z,00000200,01000000,0000.50,0000.75,0000.33,-000.33,0000.13,0000.18,0000.16,0000.28,0000.28,16.2,23.0,,00.0,0657.3,31.0
2021-02-07T20:32:00Z,00000200,01000000,0001.81,0000.62,0000.36,0000.17,0000.19,0000.04,0000.69,0000.51,0000.49,16.3,23.1,,00.0,0657.4,31.0
2021-02-07T20:33:00Z,00000200,01000000,0001.06,0000.49,0000.45,0000.32,0000.16,-000.09,0000.28,0000.39,0000.02,16.3,23.1,,00.0,0657.4,31.0
2021-02-07T20:34:00Z,00000200,01000000,0001.37,0000.97,0000.63,0000.34,-000.01,0000.19,0000.38,0000.43,0000.61,16.4,23.1,,00.0,0657.4,31.0
2021-02-07T20:35:00Z,00000200,01000000,0001.59,0000.90,0000.26,-000.67,0000.10,0000.06,0000.65,0000.31,0000.28,16.5,23.2,,00.0,0657.4,31.0
2021-02-07T20:36:00Z,00000200,01000000,0000.71,0000.84,0000.56,-000.23,0000.25,0000.36,0000.18,0000.61,-000.03,16.6,23.2,,00.0,0657.4,31.0
2021-02-07T20:37:00Z,00000200,01000000,0001.07,0000.63,0000.45,0000.74,0000.06,0000.42,0000.32,0000.13,0000.27,16.6,23.2,,00.0,0657.4,31.0
2021-02-07T20:38:00Z,00000200,01000000,0001.42,0000.95,0000.43,-000.40,0000.24,0000.27,0000.27,0000.04,0000.15,16.6,23.2,,00.0,0657.3,31.0
2021-02-07T20:39:00Z,00000200,01000000,0000.99,0000.51,0000.56,0000.41,0000.20,0000.13,0000.17,0000.29,0000.52,16.6,23.2,,00.0,0657.3,31.0
2021-02-07T20:40:00Z,00000200,01000000,0000.98,0000.63,0000.49,-000.04,0000.14,0000.20,0000.27,0000.31,-000.24,16.6,23.2,,00.0,0657.2,31.0
2021-02-07T20:41:00Z,00000200,01000000,0000.58,0000.67,0000.22,-000.16,0000.16,-000.14,0000.24,0000.06,-000.04,16.5,23.2,,00.0,0657.3,31.0
2021-02-07T20:42:00Z,00000200,01000000,0000.84,0000.73,0000.34,-000.29,0000.18,0000.28,0000.27,0000.12,0000.19,16.4,23.2,,00.0,0657.3,31.0
2021-02-07T20:43:00Z,00000200,01000000,0001.21,0000.54,0000.44,-000.14,0000.01,0000.11,0000.35,0000.53,0000.16,16.4,23.1,,00.0,0657.3,31.0
2021-02-07T20:44:00Z,00000200,01000000,0000.95,0000.99,0000.59,-000.24,0000.03,0000.07,0000.53,0000.17,0000.31,16.3,23.1,,00.0,0657.2,31.0
2021-02-07T20:45:00Z,00000200,01000000,0001.44,0000.48,0000.20,0000.01,0000.22,0000.23,0000.76,0000.58,0000.31,16.3,23.1,,00.0,0657.2,30.9
2021-02-07T20:46:00Z,00000200,01000000,0001.14,0000.91,0000.44,0000.12,0000.22,0000.40,0000.52,0000.21,0000.72,16.4,23.1,,00.0,0657.1,30.9
2021-02-07T20:47:00Z,00000200,01000000,0001.36,0000.94,0000.44,-000.30,0000.07,0000.15,0000.28,0000.89,0000.04,16.4,23.1,,00.0,0657.1,31.0
2021-02-07T20:48:00Z,00000200,01000000,0000.97,0000.91,0000.26,-000.42,0000.25,-000.06,0000.35,-000.16,0000.25,16.4,23.1,,00.0,0657.0,31.0
2021-02-07T20:49:00Z,00000200,01000000,0001.75,0000.78,0000.51,0000.40,0000.19,0000.08,0000.13,0000.40,0000.15,16.4,23.1,,00.0,0657.0,31.0
2021-02-07T20:50:00Z,00000200,01000000,0000.90,0001.09,0000.76,-000.44,0000.24,0000.39,0000.70,0000.60,0000.39,16.4,23.1,,00.0,0656.9,31.0
2021-02-07T20:51:00Z,00000200,01000000,0001.00,0000.82,0000.43,0000.25,0000.38,0000.26,0000.27,0000.31,0000.10,16.3,23.1,,00.0,0656.9,31.0
2021-02-07T20:52:00Z,00000200,01000000,0001.17,0000.76,0000.37,0000.23,0000.35,-000.19,0000.56,0000.64,0000.47,16.3,23.1,,00.0,0656.9,31.0
2021-02-07T20:53:00Z,00000200,01000000,0001.72,0001.10,0000.71,0000.18,0000.30,0000.12,0000.75,0000.19,0000.34,16.2,23.1,,00.0,0656.8,30.9
2021-02-07T20:54:00Z,00000200,01000000,0001.02,0000.90,0000.27,-000.24,0000.27,-000.23,0000.19,0000.46,0000.27,16.2,23.1,,00.0,0656.8,30.9
2021-02-07T20:55:00Z,00000200,01000000,0000.86,0000.53,0000.34,-000.26,0000.33,0000.08,0000.53,0000.26,0000.11,16.1,23.0,,00.0,0656.8,30.9
2021-02-07T20:56:00Z,00000200,01000000,0000.92,0000.50,0000.33,-000.32,0000.03,0000.15,0000.37,0000.28,0000.25,16.1,23.0,,00.0,0656.8,30.9
2021-02-07T20:57:00Z,00000200,41000000,,,,,,,-000.54,-000.13,-000.42,16.1,23.0,,00.0,0656.8,30.9
2021-02-07T20:58:00Z,00000200,61000000,,,,,,,0000.07,0000.04,0000.17,15.7,23.1,,00.0,0655.9,30.9
2021-02-07T20:59:00Z,00000200,21000000,,,,,,,0000.53,-000.36,0000.36,15.6,23.2,,00.0,0655.9,30.9
